Location: Newark
(40.3500°N, 15.2333°E)
Time: 12:33:47
(UTC+00:00)

NOAA 15 - Pass Details

Date: 27 February 2020
Orbit: 797 x 813 km, 98.7° (Epoch: 05 April)

Event Time Altitude Azimuth Distance (km) Brightness Sun altitude
Rises 17:05:36 0° 151° (SSE) 3,321 7.6 -4.2°
Reaches altitude 10° 17:07:59 10° 147° (SSE) 2,394 6.8 -4.7°
Maximum altitude 17:13:07 54° 71° (ENE) 989 4.8 -5.6°
Drops below altitude 10° 17:18:17 10° 356° (N) 2,410 7.1 -6.6°
Sets 17:20:41 0° 352° (N) 3,345 7.9 -7.1°
